| time (UTC) | temp F | wind direction | speed MPH | gust MPH | rain 1hr in | rain 24hr in | rain mn in | humidity % | barometer mb |
| 20260506233004 | 61 | 56 | 2.0 | 6.0 | 0.00 | 0.00 | 0.00 | 82 | 998.4 |
| 20260506232504 | 61 | 61 | 2.0 | 7.0 | 0.00 | 0.00 | 0.00 | 82 | 998.4 |
| 20260506232004 | 61 | 143 | 3.0 | 7.0 | 0.00 | 0.00 | 0.00 | 82 | 998.1 |
| 20260506231504 | 61 | 98 | 3.0 | 6.0 | 0.00 | 0.00 | 0.00 | 82 | 998.6 |
| 20260506231004 | 61 | 121 | 2.0 | 5.0 | 0.00 | 0.00 | 0.00 | 82 | 998.7 |
| 20260506230504 | 61 | 123 | 2.0 | 7.0 | 0.00 | 0.00 | 0.00 | 81 | 998.4 |
| 20260506230004 | 61 | 103 | 2.0 | 8.0 | 0.00 | 0.00 | 0.00 | 81 | 998.0 |
| 20260506225005 | 62 | 314 | 2.0 | 3.0 | 0.00 | 0.00 | 0.00 | 80 | 998.1 |
| 20260506224504 | 61 | 84 | 3.0 | 6.0 | 0.00 | 0.00 | 0.00 | 82 | 998.4 |
| 20260506224004 | 61 | 116 | 4.0 | 7.0 | 0.00 | 0.00 | 0.00 | 82 | 998.3 |
| 20260506223504 | 61 | 117 | 2.0 | 6.0 | 0.00 | 0.00 | 0.00 | 81 | 998.2 |
| 20260506223004 | 61 | 180 | 2.0 | 7.0 | 0.00 | 0.00 | 0.00 | 82 | 998.2 |
| 20260506222504 | 61 | 101 | 3.0 | 7.0 | 0.00 | 0.00 | 0.00 | 82 | 998.2 |
| 20260506222004 | 60 | 89 | 3.0 | 8.0 | 0.00 | 0.00 | 0.00 | 83 | 997.9 |
| 20260506221504 | 61 | 120 | 3.0 | 7.0 | 0.00 | 0.00 | 0.00 | 82 | 998.1 |
| 20260506221004 | 60 | 97 | 3.0 | 6.0 | 0.00 | 0.00 | 0.00 | 82 | 998.0 |
| 20260506220504 | 60 | 48 | 2.0 | 7.0 | 0.00 | 0.00 | 0.00 | 83 | 998.4 |
| 20260506220004 | 60 | 89 | 2.0 | 6.0 | 0.00 | 0.00 | 0.00 | 83 | 998.2 |
| 20260506215504 | 60 | 89 | 3.0 | 7.0 | 0.00 | 0.00 | 0.00 | 84 | 998.4 |
| 20260506215004 | 60 | 115 | 3.0 | 7.0 | 0.00 | 0.00 | 0.00 | 84 | 998.1 |
| 20260506214504 | 60 | 102 | 4.0 | 8.0 | 0.00 | 0.00 | 0.00 | 83 | 998.1 |
| 20260506213503 | 59 | 106 | 3.0 | 6.0 | 0.00 | 0.00 | 0.00 | 84 | 998.1 |
| 20260506212504 | 59 | 64 | 3.0 | 9.0 | 0.00 | 0.00 | 0.00 | 84 | 998.3 |
| 20260506212004 | 60 | 122 | 3.0 | 9.0 | 0.00 | 0.00 | 0.00 | 83 | 998.4 |
| 20260506211504 | 59 | 121 | 2.0 | 8.0 | 0.00 | 0.00 | 0.00 | 84 | 998.4 |
| 20260506211004 | 59 | 302 | 3.0 | 9.0 | 0.00 | 0.00 | 0.00 | 84 | 998.5 |
| 20260506210504 | 59 | 87 | 4.0 | 9.0 | 0.00 | 0.00 | 0.00 | 84 | 998.6 |
| 20260506210004 | 60 | 107 | 3.0 | 6.0 | 0.00 | 0.00 | 0.00 | 83 | 998.5 |
| 20260506205504 | 60 | 60 | 3.0 | 8.0 | 0.00 | 0.00 | 0.00 | 82 | 998.6 |
| 20260506205005 | 60 | 100 | 2.0 | 8.0 | 0.00 | 0.00 | 0.00 | 84 | 998.4 |
| 20260506203504 | 60 | 110 | 3.0 | 9.0 | 0.00 | 0.00 | 0.00 | 83 | 998.5 |
| 20260506203004 | 60 | 94 | 3.0 | 6.0 | 0.00 | 0.00 | 0.00 | 83 | 998.6 |
| 20260506202504 | 60 | 140 | 4.0 | 7.0 | 0.00 | 0.00 | 0.00 | 83 | 998.7 |
| 20260506202004 | 60 | 88 | 3.0 | 6.0 | 0.00 | 0.00 | 0.00 | 83 | 998.7 |
| 20260506201504 | 60 | 100 | 3.0 | 7.0 | 0.00 | 0.00 | 0.00 | 83 | 998.7 |
| 20260506201003 | 60 | 82 | 4.0 | 6.0 | 0.00 | 0.00 | 0.00 | 82 | 998.4 |
| 20260506200504 | 60 | 81 | 5.0 | 8.0 | 0.00 | 0.00 | 0.00 | 82 | 998.6 |
| 20260506200004 | 60 | 134 | 3.0 | 7.0 | 0.00 | 0.00 | 0.00 | 82 | 998.6 |
| 20260506195004 | 60 | 101 | 5.0 | 8.0 | 0.00 | 0.00 | 0.00 | 83 | 998.7 |
| 20260506194504 | 61 | 107 | 4.0 | 9.0 | 0.00 | 0.00 | 0.00 | 82 | 998.6 |
| 20260506193504 | 62 | 94 | 3.0 | 7.0 | 0.00 | 0.00 | 0.00 | 81 | 998.4 |
| 20260506193004 | 62 | 94 | 3.0 | 9.0 | 0.00 | 0.00 | 0.00 | 82 | 998.5 |
| 20260506192504 | 62 | 74 | 3.0 | 9.0 | 0.00 | 0.00 | 0.00 | 82 | 998.6 |
| 20260506192004 | 63 | 78 | 5.0 | 10.0 | 0.00 | 0.00 | 0.00 | 81 | 998.4 |
| 20260506191504 | 63 | 77 | 3.0 | 10.0 | 0.00 | 0.00 | 0.00 | 81 | 998.5 |
| 20260506191004 | 64 | 125 | 2.0 | 7.0 | 0.00 | 0.00 | 0.00 | 81 | 998.5 |
| 20260506190504 | 63 | 149 | 3.0 | 7.0 | 0.00 | 0.00 | 0.00 | 82 | 998.5 |
| 20260506190004 | 63 | 60 | 4.0 | 8.0 | 0.00 | 0.00 | 0.00 | 83 | 998.5 |
| 20260506185004 | 63 | 60 | 4.0 | 9.0 | 0.00 | 0.00 | 0.00 | 83 | 998.5 |
| 20260506184504 | 64 | 78 | 4.0 | 7.0 | 0.00 | 0.00 | 0.00 | 82 | 998.5 |
| 20260506184003 | 65 | 46 | 3.0 | 8.0 | 0.00 | 0.00 | 0.00 | 82 | 998.4 |
| 20260506183504 | 66 | 64 | 3.0 | 8.0 | 0.00 | 0.00 | 0.00 | 81 | 998.4 |
| 20260506183005 | 66 | 40 | 5.0 | 9.0 | 0.00 | 0.00 | 0.00 | 81 | 998.4 |
| 20260506182504 | 68 | 107 | 4.0 | 10.0 | 0.00 | 0.00 | 0.00 | 78 | 998.3 |
| 20260506182004 | 69 | 136 | 3.0 | 8.0 | 0.00 | 0.00 | 0.00 | 76 | 998.3 |
| 20260506181504 | 70 | 98 | 4.0 | 9.0 | 0.00 | 0.00 | 0.00 | 74 | 998.2 |
| 20260506181004 | 71 | 97 | 3.0 | 6.0 | 0.00 | 0.00 | 0.00 | 73 | 998.1 |
| 20260506180504 | 72 | 80 | 2.0 | 5.0 | 0.00 | 0.00 | 0.00 | 73 | 998.2 |
| 20260506175504 | 72 | 149 | 2.0 | 6.0 | 0.00 | 0.00 | 0.00 | 72 | 997.9 |
| 20260506175004 | 73 | 110 | 3.0 | 6.0 | 0.00 | 0.00 | 0.00 | 71 | 997.9 |
| 20260506174504 | 72 | 238 | 1.0 | 5.0 | 0.00 | 0.00 | 0.00 | 73 | 997.7 |
| 20260506174004 | 72 | 51 | 1.0 | 3.0 | 0.00 | 0.00 | 0.00 | 72 | 997.6 |
| 20260506173504 | 72 | 259 | 2.0 | 5.0 | 0.00 | 0.00 | 0.00 | 71 | 997.6 |
| 20260506173004 | 71 | 160 | 1.0 | 3.0 | 0.00 | 0.00 | 0.00 | 73 | 997.4 |
| 20260506172504 | 70 | 266 | 3.0 | 5.0 | 0.00 | 0.00 | 0.00 | 73 | 997.5 |
| 20260506172004 | 71 | 205 | 2.0 | 5.0 | 0.00 | 0.00 | 0.00 | 72 | 997.5 |
| 20260506171504 | 71 | 266 | 1.0 | 3.0 | 0.00 | 0.00 | 0.00 | 72 | 997.5 |
| 20260506170504 | 70 | 120 | 2.0 | 5.0 | 0.00 | 0.00 | 0.00 | 75 | 997.6 |
| 20260506170004 | 68 | 183 | 4.0 | 7.0 | 0.00 | 0.00 | 0.00 | 76 | 997.3 |
| 20260506165504 | 68 | 192 | 3.0 | 7.0 | 0.00 | 0.00 | 0.00 | 77 | 997.4 |
| 20260506164504 | 67 | 238 | 1.0 | 6.0 | 0.00 | 0.00 | 0.00 | 80 | 997.6 |
| 20260506164004 | 66 | 265 | 2.0 | 5.0 | 0.00 | 0.00 | 0.00 | 82 | 997.6 |
| 20260506163504 | 65 | 244 | 2.0 | 5.0 | 0.00 | 0.00 | 0.00 | 83 | 997.9 |
| 20260506163004 | 64 | 283 | 2.0 | 5.0 | 0.00 | 0.00 | 0.00 | 84 | 998.2 |
| 20260506162004 | 62 | 153 | 2.0 | 5.0 | 0.00 | 0.00 | 0.00 | 90 | 998.8 |
| 20260506161504 | 60 | 191 | 3.0 | 6.0 | 0.00 | 0.00 | 0.00 | 91 | 998.4 |
| 20260506160504 | 60 | 175 | 3.0 | 9.0 | 0.00 | 0.00 | 0.00 | 91 | 998.6 |
| 20260506160004 | 59 | 107 | 3.0 | 6.0 | 0.00 | 0.00 | 0.00 | 92 | 999.1 |
| 20260506155504 | 59 | 47 | 1.0 | 5.0 | 0.00 | 0.00 | 0.00 | 93 | 999.0 |
| 20260506155004 | 59 | 148 | 3.0 | 6.0 | 0.00 | 0.00 | 0.00 | 93 | 999.2 |
| 20260506154504 | 60 | 115 | 4.0 | 10.0 | 0.00 | 0.00 | 0.00 | 93 | 999.0 |
| 20260506154004 | 60 | 91 | 5.0 | 8.0 | 0.00 | 0.00 | 0.00 | 93 | 998.9 |
| 20260506153503 | 60 | 41 | 3.0 | 13.0 | 0.00 | 0.00 | 0.00 | 93 | 999.3 |
| 20260506153004 | 61 | 106 | 5.0 | 16.0 | 0.00 | 0.00 | 0.00 | 92 | 999.0 |
| 20260506152504 | 61 | 120 | 5.0 | 10.0 | 0.00 | 0.00 | 0.00 | 92 | 999.2 |
| 20260506152004 | 62 | 98 | 3.0 | 8.0 | 0.00 | 0.00 | 0.00 | 91 | 998.9 |
| 20260506151504 | 62 | 113 | 4.0 | 7.0 | 0.00 | 0.00 | 0.00 | 91 | 999.3 |
| 20260506151004 | 62 | 87 | 3.0 | 10.0 | 0.00 | 0.00 | 0.00 | 91 | 999.0 |
| 20260506150504 | 62 | 109 | 5.0 | 8.0 | 0.00 | 0.00 | 0.00 | 91 | 998.4 |
| 20260506150004 | 62 | 297 | 4.0 | 10.0 | 0.00 | 0.00 | 0.00 | 91 | 997.9 |
| 20260506145504 | 62 | 154 | 4.0 | 10.0 | 0.00 | 0.00 | 0.00 | 92 | 997.9 |
| 20260506145004 | 63 | 121 | 4.0 | 10.0 | 0.00 | 0.00 | 0.00 | 91 | 997.8 |
| 20260506144504 | 63 | 162 | 5.0 | 9.0 | 0.00 | 0.00 | 0.00 | 91 | 997.3 |
| 20260506144003 | 64 | 184 | 3.0 | 7.0 | 0.00 | 0.00 | 0.00 | 91 | 997.1 |
| 20260506143004 | 65 | 58 | 6.0 | 9.0 | 0.00 | 0.00 | 0.00 | 90 | 997.3 |
| 20260506142504 | 65 | 63 | 3.0 | 8.0 | 0.00 | 0.00 | 0.00 | 90 | 997.2 |
| 20260506142004 | 66 | 136 | 3.0 | 7.0 | 0.00 | 0.00 | 0.00 | 90 | 996.8 |
| 20260506141504 | 67 | 95 | 5.0 | 7.0 | 0.00 | 0.00 | 0.00 | 89 | 996.5 |
| 20260506141004 | 67 | 133 | 2.0 | 3.0 | 0.00 | 0.00 | 0.00 | 90 | 996.5 |
| 20260506135004 | 75 | 53 | 2.0 | 6.0 | 0.00 | 0.00 | 0.00 | 89 | 996.2 |
| 20260506134504 | 74 | 160 | 0.0 | 1.0 | 0.00 | 0.00 | 0.00 | 91 | 996.0 |
| 20260506134004 | 74 | 182 | 1.0 | 3.0 | 0.00 | 0.00 | 0.00 | 91 | 995.8 |
| 20260506133504 | 74 | 198 | 2.0 | 3.0 | 0.00 | 0.00 | 0.00 | 91 | 995.7 |
| 20260506133004 | 74 | 183 | 2.0 | 3.0 | 0.00 | 0.00 | 0.00 | 91 | 995.8 |
| 20260506132504 | 74 | 185 | 1.0 | 2.0 | 0.00 | 0.00 | 0.00 | 92 | 995.8 |
| 20260506132004 | 74 | 226 | 0.0 | 0.0 | 0.00 | 0.00 | 0.00 | 92 | 995.9 |
| 20260506131504 | 74 | 223 | 1.0 | 1.0 | 0.00 | 0.00 | 0.00 | 92 | 995.8 |
| 20260506130504 | 74 | 193 | 1.0 | 3.0 | 0.00 | 0.00 | 0.00 | 93 | 995.3 |
| 20260506130005 | 73 | 277 | 0.0 | 2.0 | 0.00 | 0.00 | 0.00 | 93 | 995.4 |
| 20260506125504 | 73 | 215 | 1.0 | 2.0 | 0.00 | 0.00 | 0.00 | 93 | 995.4 |
| 20260506125004 | 73 | 190 | 1.0 | 2.0 | 0.00 | 0.00 | 0.00 | 93 | 995.4 |
| 20260506124504 | 73 | 192 | 1.0 | 3.0 | 0.00 | 0.00 | 0.00 | 93 | 995.3 |
| 20260506124004 | 73 | 210 | 0.0 | 2.0 | 0.00 | 0.00 | 0.00 | 93 | 995.1 |
| 20260506123503 | 73 | 223 | 0.0 | 0.0 | 0.00 | 0.00 | 0.00 | 93 | 995.3 |
| 20260506122004 | 73 | 197 | 1.0 | 2.0 | 0.00 | 0.00 | 0.00 | 92 | 995.0 |
| 20260506121504 | 73 | 206 | 0.0 | 0.0 | 0.00 | 0.00 | 0.00 | 92 | 995.0 |
| 20260506121003 | 73 | 244 | 0.0 | 0.0 | 0.00 | 0.00 | 0.00 | 92 | 995.0 |
| 20260506120004 | 73 | 271 | 0.0 | 0.0 | 0.00 | 0.00 | 0.00 | 92 | 994.9 |
| 20260506115504 | 73 | 297 | 0.0 | 0.0 | 0.00 | 0.00 | 0.00 | 92 | 994.9 |
| 20260506115004 | 73 | 265 | 0.0 | 0.0 | 0.00 | 0.00 | 0.00 | 91 | 994.8 |
| 20260506114504 | 73 | 258 | 0.0 | 0.0 | 0.00 | 0.00 | 0.00 | 91 | 994.8 |
| 20260506114003 | 73 | 273 | 0.0 | 0.0 | 0.00 | 0.00 | 0.00 | 91 | 994.8 |
| 20260506113004 | 73 | 288 | 0.0 | 0.0 | 0.00 | 0.00 | 0.00 | 90 | 995.0 |
| 20260506112504 | 74 | 289 | 0.0 | 0.0 | 0.00 | 0.00 | 0.00 | 90 | 994.9 |
| 20260506111503 | 74 | 279 | 0.0 | 1.0 | 0.00 | 0.00 | 0.00 | 90 | 994.9 |
| 20260506110504 | 74 | 294 | 0.0 | 1.0 | 0.00 | 0.00 | 0.00 | 90 | 994.9 |
| 20260506105504 | 74 | 314 | 1.0 | 2.0 | 0.00 | 0.00 | 0.00 | 90 | 995.0 |
| 20260506105003 | 74 | 301 | 0.0 | 1.0 | 0.00 | 0.00 | 0.00 | 89 | 995.0 |
| 20260506104504 | 74 | 300 | 0.0 | 3.0 | 0.00 | 0.00 | 0.00 | 89 | 995.0 |
| 20260506104004 | 74 | 322 | 1.0 | 3.0 | 0.00 | 0.00 | 0.00 | 89 | 994.9 |
| 20260506103504 | 74 | 314 | 1.0 | 3.0 | 0.00 | 0.00 | 0.00 | 89 | 995.0 |
| 20260506103004 | 74 | 268 | 1.0 | 3.0 | 0.00 | 0.00 | 0.00 | 89 | 995.1 |
| 20260506102504 | 74 | 285 | 0.0 | 1.0 | 0.00 | 0.00 | 0.00 | 89 | 994.8 |
| 20260506102004 | 74 | 266 | 2.0 | 3.0 | 0.00 | 0.00 | 0.00 | 89 | 994.8 |
| 20260506101504 | 74 | 355 | 1.0 | 2.0 | 0.00 | 0.00 | 0.00 | 89 | 994.7 |
| 20260506101004 | 74 | 285 | 0.0 | 3.0 | 0.00 | 0.00 | 0.00 | 89 | 994.5 |
| 20260506100504 | 74 | 278 | 0.0 | 2.0 | 0.00 | 0.00 | 0.00 | 89 | 994.5 |
| 20260506100005 | 74 | 300 | 0.0 | 3.0 | 0.00 | 0.00 | 0.00 | 89 | 994.4 |
| 20260506095504 | 74 | 331 | 2.0 | 5.0 | 0.00 | 0.00 | 0.00 | 89 | 994.4 |
| 20260506095004 | 74 | 309 | 0.0 | 2.0 | 0.00 | 0.00 | 0.00 | 89 | 994.5 |
| 20260506094504 | 74 | 0 | 1.0 | 2.0 | 0.00 | 0.00 | 0.00 | 89 | 994.5 |
| 20260506094004 | 74 | 310 | 0.0 | 2.0 | 0.00 | 0.00 | 0.00 | 89 | 994.5 |
| 20260506093504 | 74 | 294 | 1.0 | 2.0 | 0.00 | 0.00 | 0.00 | 88 | 994.4 |
| 20260506093004 | 74 | 249 | 0.0 | 3.0 | 0.00 | 0.00 | 0.00 | 88 | 994.2 |
| 20260506092004 | 74 | 278 | 0.0 | 2.0 | 0.00 | 0.00 | 0.00 | 88 | 994.0 |
| 20260506091004 | 74 | 271 | 1.0 | 7.0 | 0.00 | 0.00 | 0.00 | 88 | 994.1 |
| 20260506090504 | 74 | 237 | 1.0 | 2.0 | 0.00 | 0.00 | 0.00 | 88 | 993.9 |
| 20260506090004 | 74 | 252 | 0.0 | 3.0 | 0.00 | 0.00 | 0.00 | 88 | 993.9 |
| 20260506085504 | 74 | 324 | 2.0 | 6.0 | 0.00 | 0.00 | 0.00 | 88 | 993.9 |
| 20260506085004 | 74 | 233 | 1.0 | 3.0 | 0.00 | 0.00 | 0.00 | 88 | 993.9 |
| 20260506084504 | 74 | 349 | 2.0 | 6.0 | 0.00 | 0.00 | 0.00 | 88 | 993.7 |
| 20260506083004 | 74 | 337 | 3.0 | 8.0 | 0.00 | 0.00 | 0.00 | 88 | 993.9 |
| 20260506082504 | 74 | 262 | 2.0 | 7.0 | 0.00 | 0.00 | 0.00 | 88 | 993.9 |
| 20260506082004 | 74 | 286 | 2.0 | 6.0 | 0.00 | 0.00 | 0.00 | 88 | 993.8 |
| 20260506080504 | 74 | 290 | 2.0 | 5.0 | 0.00 | 0.00 | 0.00 | 88 | 993.8 |
| 20260506073504 | 75 | 248 | 2.0 | 6.0 | 0.00 | 0.00 | 0.00 | 88 | 993.9 |
| 20260506073004 | 74 | 250 | 3.0 | 10.0 | 0.00 | 0.00 | 0.00 | 88 | 994.1 |
| 20260506072504 | 74 | 229 | 2.0 | 6.0 | 0.00 | 0.00 | 0.00 | 88 | 993.9 |
| 20260506072003 | 75 | 283 | 3.0 | 6.0 | 0.00 | 0.00 | 0.00 | 88 | 994.0 |
| 20260506071504 | 74 | 270 | 1.0 | 6.0 | 0.00 | 0.00 | 0.00 | 88 | 994.2 |
| 20260506071004 | 74 | 342 | 4.0 | 9.0 | 0.00 | 0.00 | 0.00 | 88 | 994.2 |
| 20260506070504 | 74 | 323 | 2.0 | 7.0 | 0.00 | 0.00 | 0.00 | 88 | 994.0 |
| 20260506062505 | 75 | 348 | 3.0 | 7.0 | 0.00 | 0.00 | 0.00 | 88 | 994.0 |
| 20260506062003 | 75 | 242 | 2.0 | 7.0 | 0.00 | 0.00 | 0.00 | 88 | 993.9 |
| 20260506061504 | 75 | 274 | 4.0 | 7.0 | 0.00 | 0.00 | 0.00 | 88 | 994.0 |
| 20260506061004 | 75 | 288 | 3.0 | 8.0 | 0.00 | 0.00 | 0.00 | 88 | 993.9 |
| 20260506060504 | 75 | 305 | 3.0 | 6.0 | 0.00 | 0.00 | 0.00 | 88 | 993.7 |
| 20260506045004 | 75 | 279 | 3.0 | 8.0 | 0.00 | 0.00 | 0.00 | 88 | 994.0 |
| 20260506044504 | 75 | 257 | 3.0 | 7.0 | 0.00 | 0.00 | 0.00 | 88 | 994.0 |
| 20260506043505 | 75 | 272 | 2.0 | 5.0 | 0.00 | 0.00 | 0.00 | 88 | 994.1 |
| 20260506043004 | 75 | 250 | 2.0 | 5.0 | 0.00 | 0.00 | 0.00 | 88 | 994.0 |
| 20260506042504 | 75 | 262 | 2.0 | 2.0 | 0.00 | 0.00 | 0.00 | 87 | 994.0 |
| 20260506042004 | 76 | 239 | 1.0 | 5.0 | 0.00 | 0.00 | 0.00 | 87 | 993.8 |
| 20260506041504 | 76 | 266 | 2.0 | 5.0 | 0.00 | 0.00 | 0.00 | 87 | 993.8 |
| 20260506041004 | 76 | 245 | 2.0 | 5.0 | 0.00 | 0.00 | 0.00 | 87 | 993.8 |
| 20260506035505 | 76 | 211 | 2.0 | 5.0 | 0.00 | 0.00 | 0.00 | 86 | 993.5 |
| 20260506034504 | 76 | 259 | 2.0 | 5.0 | 0.00 | 0.00 | 0.00 | 85 | 993.7 |
| 20260506034004 | 76 | 252 | 3.0 | 5.0 | 0.00 | 0.00 | 0.00 | 85 | 993.6 |
| 20260506033504 | 76 | 264 | 2.0 | 3.0 | 0.00 | 0.00 | 0.00 | 85 | 993.4 |
| 20260506033005 | 76 | 206 | 3.0 | 8.0 | 0.00 | 0.00 | 0.00 | 84 | 993.4 |
| 20260506032504 | 77 | 271 | 4.0 | 8.0 | 0.00 | 0.00 | 0.00 | 84 | 993.3 |
| 20260506032005 | 77 | 234 | 1.0 | 5.0 | 0.00 | 0.00 | 0.00 | 84 | 993.4 |
| 20260506031005 | 77 | 267 | 3.0 | 5.0 | 0.00 | 0.00 | 0.00 | 83 | 993.3 |
| 20260506030504 | 77 | 258 | 1.0 | 6.0 | 0.00 | 0.00 | 0.00 | 83 | 993.1 |
| 20260506030004 | 77 | 261 | 2.0 | 6.0 | 0.00 | 0.00 | 0.00 | 82 | 993.1 |
| 20260506025504 | 77 | 303 | 3.0 | 7.0 | 0.00 | 0.00 | 0.00 | 82 | 993.0 |
| 20260506025004 | 78 | 270 | 1.0 | 3.0 | 0.00 | 0.00 | 0.00 | 82 | 993.1 |
| 20260506024004 | 78 | 172 | 3.0 | 5.0 | 0.00 | 0.00 | 0.00 | 81 | 992.8 |
| 20260506023505 | 78 | 262 | 3.0 | 5.0 | 0.00 | 0.00 | 0.00 | 81 | 992.8 |
| 20260506023004 | 78 | 246 | 2.0 | 5.0 | 0.00 | 0.00 | 0.00 | 81 | 992.8 |
| 20260506022504 | 78 | 268 | 3.0 | 5.0 | 0.00 | 0.00 | 0.00 | 80 | 992.7 |
| 20260506022004 | 78 | 253 | 3.0 | 6.0 | 0.00 | 0.00 | 0.00 | 80 | 992.5 |
| 20260506021504 | 78 | 243 | 2.0 | 5.0 | 0.00 | 0.00 | 0.00 | 80 | 992.5 |
| 20260506020504 | 79 | 232 | 3.0 | 7.0 | 0.00 | 0.00 | 0.00 | 79 | 992.4 |
| 20260506015504 | 79 | 237 | 3.0 | 5.0 | 0.00 | 0.00 | 0.00 | 78 | 992.3 |
| 20260506015004 | 79 | 243 | 2.0 | 3.0 | 0.00 | 0.00 | 0.00 | 77 | 992.3 |
| 20260506014504 | 79 | 281 | 2.0 | 6.0 | 0.00 | 0.00 | 0.00 | 77 | 992.0 |
| 20260506014004 | 79 | 253 | 3.0 | 7.0 | 0.00 | 0.00 | 0.00 | 77 | 992.0 |
| 20260506013504 | 79 | 239 | 2.0 | 8.0 | 0.00 | 0.00 | 0.00 | 77 | 992.0 |
| 20260506013004 | 79 | 240 | 5.0 | 8.0 | 0.00 | 0.00 | 0.00 | 76 | 992.0 |
| 20260506012504 | 79 | 263 | 2.0 | 3.0 | 0.00 | 0.00 | 0.00 | 76 | 991.9 |
| 20260506011504 | 80 | 270 | 1.0 | 1.0 | 0.00 | 0.00 | 0.00 | 75 | 991.8 |
| 20260506011004 | 80 | 313 | 0.0 | 0.0 | 0.00 | 0.00 | 0.00 | 74 | 992.0 |
| 20260506005004 | 81 | 257 | 1.0 | 2.0 | 0.00 | 0.00 | 0.00 | 72 | 991.9 |
| 20260506004504 | 82 | 276 | 1.0 | 5.0 | 0.00 | 0.00 | 0.00 | 72 | 991.8 |
| 20260506004004 | 82 | 292 | 1.0 | 3.0 | 0.00 | 0.00 | 0.00 | 71 | 992.0 |
| 20260506003504 | 82 | 240 | 1.0 | 5.0 | 0.00 | 0.00 | 0.00 | 71 | 992.1 |
| 20260506003004 | 82 | 354 | 0.0 | 5.0 | 0.00 | 0.00 | 0.00 | 71 | 991.9 |
| 20260506002504 | 82 | 281 | 2.0 | 5.0 | 0.00 | 0.00 | 0.00 | 70 | 992.0 |
| 20260506002004 | 82 | 277 | 2.0 | 5.0 | 0.00 | 0.00 | 0.00 | 70 | 992.1 |
| 20260506001504 | 82 | 218 | 2.0 | 5.0 | 0.00 | 0.00 | 0.00 | 70 | 991.9 |
| 20260506001004 | 82 | 273 | 2.0 | 7.0 | 0.00 | 0.00 | 0.00 | 70 | 991.8 |
| 20260506000504 | 82 | 230 | 1.0 | 7.0 | 0.00 | 0.00 | 0.00 | 70 | 992.0 |
| 20260505235504 | 82 | 8 | 1.0 | 8.0 | 0.00 | 0.00 | 0.00 | 70 | 992.0 |
| 20260505235004 | 82 | 250 | 2.0 | 3.0 | 0.00 | 0.00 | 0.00 | 70 | 992.0 |
| 20260505234504 | 83 | 277 | 3.0 | 8.0 | 0.00 | 0.00 | 0.00 | 70 | 992.0 |
| 20260505234004 | 83 | 340 | 2.0 | 5.0 | 0.00 | 0.00 | 0.00 | 69 | 991.9 |